Overview Statistics Trail Chart Weather Telemetry Raw packets
 

This is the latest recevied weather packets stored in our database for station/object N7IGG. If no packets are shown the sender has not sent any weather packets the latest 10 day(s).

<< 1 2 3 4 5 6 7 >>
Time Temp. Humidity Pressure Rain* Wind** Luminosity Snow
1778186641 14.44° C 77% 1020 hPa 0 mm - 643 W/m² -
1778186339 14.44° C 79% 1020 hPa 0 mm - 711 W/m² -
1778186037 14.44° C 80% 1020 hPa 0 mm - 486 W/m² -
1778185733 13.89° C 81% 1020.2 hPa 0 mm - 561 W/m² -
1778185429 13.33° C 81% 1020.3 hPa 0 mm - 177 W/m² -
1778185125 13.89° C 81% 1020.2 hPa 0 mm - 610 W/m² -
1778184820 13.89° C 82% 1020.4 hPa 0 mm - 701 W/m² -
1778184517 13.33° C 82% 1020.4 hPa 0 mm - 657 W/m² -
1778184213 13.89° C 81% 1020.4 hPa 0 mm - 735 W/m² -
1778183909 13.33° C 80% 1020.6 hPa 0 mm - 615 W/m² -
1778183607 13.33° C 81% 1020.6 hPa 0 mm - 738 W/m² -
1778183304 13.33° C 82% 1020.5 hPa 0 mm - 710 W/m² -
1778183000 13.33° C 83% 1020.6 hPa 0 mm - 714 W/m² -
1778182696 12.78° C 83% 1020.5 hPa 0 mm - 734 W/m² -
1778182394 12.78° C 83% 1020.4 hPa 0 mm - 533 W/m² -
1778182089 12.78° C 83% 1020.5 hPa 0 mm - 735 W/m² -
1778181787 12.78° C 83% 1020.5 hPa 0 mm - 637 W/m² -
1778181482 12.78° C 84% 1020.6 hPa 0 mm - 668 W/m² -
1778181179 12.78° C 83% 1020.4 hPa 0 mm - 612 W/m² -
1778180876 12.78° C 83% 1020.8 hPa 0 mm - 530 W/m² -
1778180575 12.78° C 83% 1020.5 hPa 0 mm - 680 W/m² -
1778180273 12.78° C 83% 1020.5 hPa 0 mm - 667 W/m² -
1778179969 12.78° C 82% 1020.5 hPa 0 mm - 614 W/m² -
1778179667 12.78° C 83% 1020.6 hPa 0 mm - 599 W/m² -
1778179365 12.78° C 84% 1021 hPa 0 mm - 613 W/m² -

* Rain latest hour (hover to see other rain measurements)
** Current wind speed in m/s (hover to see current wind gust speed)